Flag for United Kingdom Weather past 2 weeks in Leicester, England, United Kingdom

Now
46 °F

Scattered clouds.


Feels Like: 38 °F
Forecast: 38 / 48 °F
Wind: 24 mph from West

Location: East Midlands

Current Time: Apr 1, 2015 at 10:34:58 AM

Latest Report: Apr 1, 2015 at 10:20 AM


Visibility: N/A

Pressure: 30.18 "Hg

Humidity: 62%

Dew point: 34 °F

Location of LeicesterLocation

Historic Weather in Leicester — Graph

°F

Leicester temperature yesterday

Maximum temperature yesterday: 52 °F (at 12:20 AM)
Minimum temperature yesterday: 39 °F (at 6:50 PM)
Average temperature yesterday: 45 °F

Past Weeks' High & Low Weather Summary

 TemperatureHumidityPressure
High59 °F (Mar 28, 2:20 PM)100% (Mar 17, 7:50 AM)30.57 "Hg (Mar 17, 7:50 AM)
Low30 °F (Mar 18, 1:20 AM)46% (Mar 30, 1:50 PM)29.15 "Hg (Mar 29, 1:20 PM)
Average43 °F78%29.99 "Hg
* Reported Mar 17 7:20 AM — Apr 1 8:50 AM, Leicester, Weather by CustomWeather, © 2015

Note: Actual official high and low records may vary slightly from our data, if they occured in-between our weather recording intervals... More about our weather records

Advertising

Leicester weather history for previous 24 hours

 ConditionsComfort  
Time TempWeatherWind HumidityBarometerVisibility
8:50 AM
Wed, Apr 1
43 °FScattered clouds.18 mph71%30.18 "HgN/A
8:20 AM41 °FScattered clouds.16 mph76%30.15 "HgN/A
7:50 AM39 °FScattered clouds.17 mph75%30.15 "HgN/A
7:20 AM37 °FPassing clouds.20 mph81%30.15 "HgN/A
6:50 AM37 °FPassing clouds.20 mph81%30.12 "HgN/A
6:20 AM37 °FPassing clouds.20 mph81%30.12 "HgN/A
5:50 AM37 °FPassing clouds.20 mph81%30.12 "HgN/A
5:20 AM39 °FPassing clouds.17 mph75%30.12 "HgN/A
4:50 AM39 °FPassing clouds.18 mph75%30.09 "HgN/A
4:20 AM39 °FPassing clouds.20 mph75%30.09 "HgN/A
3:50 AM39 °FPassing clouds.21 mph75%30.09 "HgN/A
3:20 AM39 °FPassing clouds.20 mph75%30.07 "HgN/A
2:50 AM37 °FPassing clouds.20 mph81%30.07 "HgN/A
2:20 AM37 °FLight rain. Passing clouds.21 mph81%30.07 "HgN/A
1:50 AM39 °FLight rain. Passing clouds.17 mph75%30.04 "HgN/A
1:20 AM41 °FPassing clouds.21 mph66%30.04 "HgN/A
12:50 AM41 °FPassing clouds.20 mph66%30.04 "HgN/A
12:20 AM39 °FPassing clouds.18 mph70%30.01 "HgN/A
11:50 PM
Tue, Mar 31
39 °FPassing clouds.21 mph70%30.01 "HgN/A
11:20 PM41 °FPassing clouds.24 mph66%29.98 "HgN/A
10:50 PM39 °FPassing clouds.22 mph75%29.98 "HgN/A
10:20 PM41 °FPassing clouds.24 mph70%29.98 "HgN/A
9:50 PM39 °FPassing clouds.15 mph75%29.95 "HgN/A
9:20 PM39 °FPassing clouds.16 mph75%29.95 "HgN/A
8:50 PM39 °FSprinkles. Passing clouds.25 mph81%29.95 "HgN/A
8:20 PM41 °FScattered showers. Scattered clouds.26 mph76%29.92 "HgN/A
7:20 PM41 °FScattered showers. Passing clouds.22 mph76%29.89 "HgN/A
6:50 PM39 °FRain showers. Scattered clouds.24 mph87%29.89 "HgN/A
6:20 PM43 °FScattered showers. Passing clouds.28 mph66%29.86 "HgN/A
5:50 PM43 °FScattered showers. Scattered clouds.28 mph71%29.86 "HgN/A
5:20 PM45 °FScattered showers. Scattered clouds.24 mph66%29.86 "HgN/A
4:50 PM46 °FScattered showers. Scattered clouds.29 mph57%29.86 "HgN/A
4:20 PM48 °FScattered clouds.31 mph54%29.83 "HgN/A
3:50 PM46 °FScattered clouds.31 mph66%29.80 "HgN/A
3:20 PM46 °FScattered showers. Scattered clouds.24 mph71%29.80 "HgN/A
2:50 PM43 °FScattered showers. Scattered clouds.26 mph81%29.80 "HgN/A
2:20 PM43 °FScattered showers. Scattered clouds.22 mph87%29.77 "HgN/A
1:50 PM41 °FSleet. Broken clouds.28 mph87%29.80 "HgN/A
1:20 PM46 °FSprinkles. Broken clouds.21 mph76%29.77 "HgN/A
12:50 PM48 °FSprinkles. Partly sunny.28 mph58%29.74 "Hg4 mi
12:20 PM48 °FPartly sunny.30 mph58%29.74 "HgN/A
11:50 AM48 °FBroken clouds.30 mph66%29.71 "HgN/A
11:20 AM46 °FScattered clouds.28 mph71%29.71 "HgN/A
10:50 AM45 °FScattered showers. Scattered clouds.32 mph81%29.71 "HgN/A
Weather by CustomWeather, © 2015

See weather overviewHow to use our weather pages